Terminal Aerodrome Forecast
Issued by NWS

Home | Current Version | Previous Version | Text Only | Print | Product List | Glossary On
Versions: 1 2 3 4 5 6 7 8 9 10 11 12 13
000
FTUS46 KSGX 250500
TAFTRM
TAF
KTRM 250520Z 2506/2606 33011KT P6SM SCT250
     FM251100 VRB05KT P6SM FEW250
     FM252000 31011G20KT P6SM SCT250
     FM252300 32018G27KT P6SM SCT250=

USA.gov is the U.S. government's official web portal to all federal, state and local government web resources and services.